GFSGL_500_spd_180.txt.gz
Wind_Speed
12 12 12 13 15 13 16 22 26 28 34 40 43 48 40 40 41 42 42 44 45 45 48 49 50 55 61 66 67 59 61 60 60 58 58 53 49 44 32 28 27 28 32
11 12 13 14 15 14 18 23 28 27 33 43 48 43 46 48 45 45 49 50 46 44 48 49 51 56 62 62 62 49 60 57 56 55 51 38 25 11 13 17 21 23 23
10 11 13 15 15 18 21 25 29 31 34 45 47 50 49 54 50 54 52 40 41 45 49 48 51 55 60 59 56 51 51 53 54 50 46 38 25 12 9 14 18 20 25
12 12 14 16 18 20 23 26 30 35 39 46 48 49 53 52 54 54 48 45 47 49 49 48 51 54 57 58 47 45 49 50 49 46 41 36 26 18 13 14 18 21 27
13 14 17 18 20 24 26 29 33 37 41 47 46 50 53 57 56 52 48 49 50 50 48 48 49 53 55 57 49 45 47 50 42 39 38 33 27 24 20 17 17 21 25
14 15 18 20 22 26 29 32 36 38 42 48 44 50 54 57 52 53 52 49 47 50 49 47 47 50 53 55 51 46 42 46 36 31 29 29 26 23 24 25 21 18 23
16 17 19 21 24 26 31 35 37 38 41 46 46 49 53 53 54 57 53 48 48 50 49 47 47 47 50 52 48 46 41 41 35 34 29 26 27 17 22 27 30 37 29
20 21 20 23 26 29 33 37 38 43 44 43 46 50 52 55 58 56 53 50 47 50 48 46 44 44 47 49 49 46 41 37 36 30 31 28 28 30 32 29 25 30 39
23 22 23 26 27 31 36 38 42 46 45 45 46 48 51 53 58 58 54 52 48 47 46 43 41 42 45 47 47 45 41 36 32 30 31 32 30 30 32 33 33 32 32
23 22 26 29 32 36 38 40 44 47 45 44 43 45 49 52 57 58 56 51 45 44 43 40 39 40 41 43 41 40 39 36 34 36 35 33 32 30 32 34 35 35 31
28 29 29 33 36 39 40 42 43 46 43 39 40 44 48 55 58 62 52 48 42 43 41 39 38 38 40 41 37 35 34 33 32 31 31 31 32 32 33 35 35 34 33
29 30 33 35 38 40 40 41 44 43 39 38 41 45 51 57 60 57 45 45 45 46 44 38 37 36 38 40 35 31 30 33 32 31 31 32 33 33 33 34 37 36 35
32 33 34 37 37 38 41 39 38 38 37 39 41 46 53 55 55 44 48 48 50 51 45 37 36 36 37 38 35 33 32 31 31 30 32 34 33 33 33 34 35 36 36
32 34 36 35 37 39 37 35 36 35 37 38 42 47 53 51 49 46 49 50 51 54 39 34 36 35 36 37 36 35 34 33 31 31 33 32 35 36 35 33 32 31 32
35 34 36 33 35 35 32 33 34 35 38 41 44 48 50 51 50 54 59 58 52 50 38 30 33 35 36 37 37 37 36 35 34 34 32 33 35 35 37 36 34 32 32
35 35 33 32 33 32 32 33 35 36 40 41 43 46 49 52 55 57 60 51 50 45 33 28 33 35 36 37 37 37 36 35 36 35 35 35 35 37 36 34 35 34 31
37 35 33 35 36 34 35 36 37 37 38 42 44 47 50 53 57 57 55 57 50 38 27 28 33 34 36 36 37 38 38 37 36 36 35 35 36 35 34 33 31 33 32
35 38 37 38 39 38 39 37 38 38 41 45 48 49 50 53 56 58 56 52 45 30 24 29 33 35 37 36 37 38 38 37 36 36 36 34 34 34 33 33 32 31 31
38 42 43 44 40 41 41 40 41 42 43 47 50 51 52 57 57 55 56 48 38 28 26 29 33 35 36 37 37 38 38 37 36 36 37 36 34 33 32 32 32 31 31
43 45 47 46 43 43 44 42 42 43 47 49 49 52 54 58 59 59 53 46 32 26 26 31 33 35 36 37 38 40 40 38 38 37 36 36 35 34 32 31 30 29 29
45 46 50 49 45 45 45 44 43 44 46 48 50 52 55 57 60 55 48 38 28 25 28 31 33 35 37 38 39 40 40 39 39 39 37 35 34 33 33 31 30 29 28
45 48 52 51 49 45 44 45 44 45 47 49 50 53 54 55 52 48 43 34 28 27 29 32 34 36 37 39 40 40 41 40 39 38 37 36 35 34 33 31 31 29 28
50 53 54 53 50 45 44 45 46 46 49 50 52 54 52 56 50 47 39 31 25 27 31 34 35 37 39 41 41 42 42 41 40 38 36 35 35 34 33 32 30 29 28
55 56 57 52 47 46 46 48 48 48 49 52 54 53 53 48 45 42 39 28 25 29 33 36 36 39 41 41 43 43 43 41 39 37 36 35 34 34 33 32 30 28 27
58 59 55 50 48 47 49 48 48 48 51 52 52 50 49 43 40 41 40 22 26 29 34 36 37 39 41 43 43 42 42 41 39 37 35 33 33 32 31 31 29 28 26
59 55 51 50 50 49 50 49 49 50 51 51 48 46 43 39 38 37 25 24 29 32 35 37 38 40 40 41 43 42 41 39 37 35 34 32 30 30 30 29 28 27 26

GFSGL_500_spd_183.txt.gz
Wind_Speed
7 7 8 10 9 11 14 17 22 25 28 35 41 40 45 49 47 51 47 46 43 42 43 43 45 47 49 51 53 56 60 59 52 51 48 43 42 43 39 28 13 6 13
8 7 9 11 12 13 16 20 23 26 30 34 40 45 47 52 51 51 49 52 48 45 42 44 46 48 50 50 52 57 59 55 48 48 39 37 36 35 34 27 19 12 14
10 8 9 10 12 15 19 22 25 29 33 35 40 44 48 52 51 52 53 55 49 47 46 46 48 47 48 50 52 56 58 51 48 42 38 35 36 31 28 28 25 20 21
12 11 12 13 15 17 21 24 27 31 35 36 39 45 51 52 52 51 53 53 53 49 47 48 48 47 47 49 50 54 55 48 44 41 38 33 33 36 31 29 31 26 27
13 13 13 16 17 19 21 25 29 33 35 38 42 47 52 52 50 50 53 56 53 50 49 46 47 49 47 49 48 51 53 44 41 37 38 37 34 37 39 30 28 31 39
14 16 17 19 21 21 22 26 31 34 37 41 45 48 50 49 48 48 52 56 58 53 48 44 46 48 47 47 46 49 50 43 38 35 33 34 30 29 29 29 28 28 30
19 19 21 20 24 25 25 27 32 36 39 43 45 47 50 48 45 48 53 59 59 51 45 44 47 47 46 44 44 47 47 42 39 36 34 33 32 33 33 32 32 33 30
23 22 24 24 25 25 26 28 33 37 41 43 45 49 49 44 44 49 55 59 55 46 45 49 50 48 45 42 42 45 45 39 37 37 36 34 32 33 33 33 33 35 36
24 24 27 27 25 26 28 32 35 38 42 43 46 49 45 41 45 50 56 55 49 46 48 47 50 47 43 41 40 42 44 42 39 37 36 36 36 35 33 35 35 34 34
29 29 28 28 28 29 31 33 36 39 41 45 46 43 40 42 46 51 54 54 50 47 53 50 50 45 41 39 38 40 42 41 39 39 37 37 39 38 39 38 38 37 37
30 30 30 30 29 31 32 36 38 39 43 44 41 38 39 42 47 51 54 56 53 56 59 54 48 42 39 37 37 39 40 40 39 37 37 37 39 39 42 42 43 41 40
32 32 32 31 31 32 35 39 39 41 42 38 36 37 40 42 49 52 55 55 58 56 56 52 50 41 36 36 37 38 40 41 41 39 39 37 37 38 39 41 43 44 43
35 34 34 31 31 32 36 37 40 40 37 36 36 38 41 46 49 51 55 58 58 58 60 58 49 43 33 33 35 37 39 40 41 40 39 39 37 37 39 40 41 42 43
39 35 32 29 32 33 33 34 36 36 35 36 37 40 44 46 49 51 54 56 58 58 57 54 49 39 30 32 34 37 39 39 40 40 40 41 40 38 37 39 38 36 36
43 38 33 30 31 32 31 32 32 34 36 36 39 42 45 48 50 53 56 56 61 58 59 56 47 36 30 32 34 36 39 40 42 41 40 40 39 37 36 36 37 37 35
40 37 30 30 31 31 30 32 34 36 37 39 42 45 47 50 51 55 57 59 61 62 61 52 42 32 31 32 35 38 39 40 41 41 40 39 38 37 36 35 36 37 36
38 32 28 32 31 31 31 35 38 39 41 40 42 46 48 49 52 55 58 60 62 62 54 48 40 33 31 32 36 38 39 40 41 42 41 40 40 39 36 36 34 34 36
30 30 31 33 34 35 36 38 40 41 43 43 43 46 47 49 52 55 56 59 59 54 49 44 36 32 31 31 36 39 41 42 43 43 42 41 40 39 37 36 35 33 32
30 30 32 34 37 40 41 42 44 45 46 45 45 47 48 50 53 56 56 57 58 53 48 42 34 33 30 33 37 39 41 42 44 43 42 43 40 38 37 36 35 35 33
31 33 35 37 40 44 46 47 47 50 49 48 48 49 52 52 54 55 57 56 55 49 44 41 36 31 30 35 38 40 42 43 42 43 44 42 41 39 37 35 35 34 33
34 35 38 40 43 45 49 50 51 54 52 49 49 51 53 54 55 57 57 55 52 46 45 40 29 29 34 36 38 41 42 44 45 44 44 43 40 39 37 36 35 34 33
40 41 43 43 45 47 50 52 54 56 53 51 51 53 54 53 55 56 54 50 48 45 42 31 29 34 38 40 43 43 44 44 43 43 45 44 41 39 38 36 34 33 32
39 43 44 45 49 51 54 55 56 58 54 52 52 54 54 54 54 52 47 45 43 41 35 28 32 37 39 40 42 42 44 46 46 45 44 42 40 38 36 34 32 30 30
42 45 48 50 53 54 55 57 60 59 54 53 53 53 53 54 52 49 44 40 40 38 31 31 35 37 39 41 41 42 45 46 45 42 41 40 37 34 33 31 31 29 28
47 50 51 53 54 55 57 60 59 55 53 53 53 53 53 50 48 46 40 38 36 31 30 33 37 38 39 38 40 43 46 43 40 41 40 37 33 32 31 30 30 28 27
50 52 54 56 59 61 62 59 55 55 54 54 52 51 47 45 45 41 37 34 28 29 31 35 36 37 36 37 41 45 41 39 39 38 35 32 31 30 30 30 31 32 32

GFSGL_500_spd_186.txt.gz
Wind_Speed
8 8 7 8 9 10 13 15 19 23 26 28 31 34 40 43 46 47 43 42 44 47 43 44 41 40 40 42 45 48 48 50 52 50 46 40 36 35 36 35 40 30 27
7 8 7 8 10 11 14 17 21 25 28 29 30 35 40 43 46 48 44 43 45 50 50 46 41 38 42 43 47 48 47 48 49 46 43 40 37 37 34 37 41 39 39
7 7 7 8 10 12 14 16 19 24 28 30 32 36 41 43 47 49 44 43 48 52 56 46 38 42 46 46 46 47 46 47 47 45 42 41 39 37 39 41 40 37 34
8 9 8 10 12 13 15 17 20 24 28 31 34 38 41 43 48 50 42 43 47 54 50 43 39 42 48 47 46 47 44 46 46 42 42 41 40 38 36 35 39 40 40
8 10 9 11 13 17 18 20 23 25 28 32 36 39 42 44 47 48 42 43 49 52 51 44 45 49 50 49 45 45 42 42 43 38 38 39 39 38 36 34 34 36 36
12 13 14 14 18 19 22 25 27 27 31 32 36 41 43 45 47 45 43 45 48 51 53 52 54 57 57 53 46 42 39 39 40 38 39 37 36 38 41 38 35 34 33
15 17 20 20 20 23 24 26 27 30 33 33 39 42 43 45 45 42 43 46 49 53 54 55 55 56 56 57 47 42 37 38 39 39 39 38 37 38 39 39 39 39 38
17 20 24 26 23 26 28 26 28 33 34 35 40 42 44 43 42 42 45 47 52 54 55 57 58 58 55 54 47 41 38 38 39 39 38 38 37 38 39 38 36 38 39
17 19 23 27 27 29 28 29 31 35 34 40 42 44 43 41 42 43 46 48 51 53 56 57 60 58 55 53 47 40 39 38 38 39 40 40 39 39 38 39 40 38 38
17 19 21 24 28 29 28 31 33 34 38 41 43 43 41 41 42 45 46 49 51 55 57 58 61 60 57 50 44 38 38 37 38 38 39 40 40 39 40 41 41 41 38
18 21 21 23 24 27 30 30 33 35 39 42 42 41 39 40 41 44 47 48 51 55 58 60 61 61 56 48 42 35 36 36 37 37 39 40 40 40 40 40 41 41 40
26 30 24 27 27 25 28 31 32 36 37 40 38 38 38 39 42 46 48 49 53 56 60 61 63 59 51 46 40 35 35 36 37 38 40 42 41 38 38 39 41 43 43
32 34 33 31 31 26 26 27 32 34 37 37 35 35 36 38 43 47 49 50 53 57 61 61 62 55 49 44 37 35 35 36 37 39 40 42 42 39 37 38 40 41 43
35 36 39 38 30 28 26 27 27 33 35 35 34 35 37 38 43 46 48 51 55 57 60 61 60 54 48 41 36 35 35 36 38 40 42 44 44 41 39 39 38 37 37
37 42 41 34 28 28 24 25 27 31 34 34 34 37 40 41 44 47 50 52 55 57 60 60 57 51 46 44 41 37 37 38 41 41 42 44 44 41 40 40 39 38 38
44 40 34 32 29 24 24 24 28 32 34 35 37 40 43 44 45 48 50 53 55 59 61 58 53 46 44 41 39 39 35 39 41 42 43 43 43 43 42 41 40 39 38
43 38 39 31 24 25 25 25 30 34 34 37 40 42 45 45 47 50 52 55 58 60 59 55 51 45 43 40 37 32 38 40 42 44 45 44 44 44 41 40 38 36 36
40 39 34 28 26 25 25 28 32 36 37 40 41 44 48 48 49 52 53 56 58 59 56 52 47 44 40 35 31 37 39 42 43 44 45 45 45 43 41 39 37 35 34
41 39 33 29 28 27 28 31 35 39 42 43 45 48 51 52 52 53 54 57 58 55 50 48 45 42 35 31 35 39 42 43 44 44 46 47 49 46 42 39 37 35 33
41 33 30 30 30 30 31 34 39 43 45 45 50 51 54 55 54 54 54 57 57 52 49 45 43 39 31 34 38 41 42 41 44 46 47 49 47 44 43 40 37 34 32
38 34 33 33 32 32 36 39 42 46 48 50 52 53 56 56 55 54 54 57 54 50 46 44 42 34 32 36 39 41 42 43 46 48 49 46 44 45 45 41 36 33 31
36 34 32 32 34 38 40 43 46 49 51 53 55 56 59 55 55 55 55 56 51 49 44 43 40 33 34 38 40 41 40 43 47 49 46 45 46 45 41 37 33 32 30
32 33 32 34 36 39 42 46 49 52 53 56 57 59 59 55 55 55 55 52 50 48 44 42 35 32 36 39 39 38 41 45 48 45 43 44 43 39 36 34 32 31 31
37 36 36 36 37 40 46 50 53 54 56 57 59 61 59 55 54 53 52 50 48 44 42 39 33 34 37 39 39 39 43 46 45 43 42 40 38 35 33 33 34 35 35
39 39 37 37 40 44 49 53 55 56 57 60 61 61 59 55 53 53 52 47 45 42 39 35 32 35 38 39 38 39 43 44 43 41 39 36 36 36 37 38 39 39 37
40 39 39 40 44 49 54 56 56 58 61 63 62 61 59 56 51 50 46 45 43 39 35 33 32 36 38 39 38 40 41 41 39 38 36 35 37 39 40 41 41 41 40

GFSGL_500_spd_189.txt.gz
Wind_Speed
4 5 7 8 10 10 10 12 15 17 20 24 26 28 33 37 39 42 43 39 38 38 41 43 43 39 43 47 52 50 50 45 43 43 42 39 37 37 36 35 36 34 35
2 4 6 8 10 9 9 10 13 16 19 22 27 29 33 37 39 42 44 40 37 39 42 44 46 48 47 50 51 53 50 44 42 42 40 40 36 37 38 37 36 36 34
2 4 6 8 6 6 7 9 14 18 19 23 27 30 34 37 39 43 44 40 38 39 43 46 48 48 52 53 52 53 49 44 40 40 38 39 37 35 39 41 40 39 39
4 6 8 7 6 8 11 13 17 22 23 24 29 32 35 38 41 44 43 40 40 41 44 46 49 50 54 55 54 52 49 44 41 40 38 36 37 35 37 39 40 40 40
6 7 8 7 8 10 13 15 20 23 25 27 32 33 38 39 42 44 42 41 42 42 44 46 50 52 56 57 56 52 49 43 41 39 36 35 34 35 34 36 39 38 40
7 9 11 13 13 13 17 20 23 26 26 29 34 33 40 41 44 44 43 42 43 43 45 48 51 54 56 58 57 51 48 41 39 38 35 34 33 34 35 35 37 37 35
7 10 11 14 16 19 20 23 27 26 28 30 35 35 41 43 44 44 43 43 43 43 45 49 53 56 59 60 57 50 47 43 38 37 36 35 35 35 35 36 36 36 37
6 9 12 14 16 19 22 25 28 27 30 32 36 38 44 44 44 42 41 42 41 43 46 50 54 58 59 59 55 50 45 44 39 37 36 36 35 36 36 35 34 34 35
6 10 15 17 18 19 20 26 26 27 31 34 36 39 44 44 42 40 39 39 41 43 47 51 55 58 59 59 54 49 45 42 39 37 37 36 37 37 39 38 36 34 34
9 13 14 19 23 22 21 24 25 27 31 32 36 39 42 40 39 37 36 38 42 46 50 54 56 58 60 57 51 45 43 40 37 37 37 39 39 40 41 40 36 36 37
9 13 19 19 18 19 21 21 26 28 29 32 35 40 40 36 35 35 36 39 43 47 51 55 56 57 57 54 47 43 41 38 37 36 37 39 40 41 43 42 39 39 40
16 18 22 23 23 23 23 21 26 27 28 30 33 38 38 34 34 35 37 41 45 48 52 55 55 57 54 51 46 44 40 38 36 37 39 41 41 42 44 43 42 42 41
19 21 22 23 27 30 23 20 24 27 27 27 31 35 36 33 34 37 39 43 46 49 51 55 57 56 51 48 46 43 39 36 37 37 41 42 42 43 43 43 44 42 41
23 24 25 26 32 33 25 23 25 28 26 26 30 33 33 33 36 39 41 44 47 49 52 57 58 53 50 47 45 41 38 36 35 40 43 43 44 44 43 42 42 40 38
28 29 28 29 34 32 28 28 28 26 25 28 31 31 33 34 37 40 43 45 48 51 54 58 55 51 48 47 47 42 36 35 40 43 45 45 45 45 45 44 42 39 38
34 32 32 33 39 34 33 29 27 27 26 29 32 33 35 37 40 41 46 48 49 52 55 58 52 50 46 48 45 39 35 40 42 44 44 46 45 45 45 44 42 41 38
38 37 36 41 43 34 32 29 27 27 27 31 33 36 37 39 42 43 49 50 50 51 54 55 50 48 48 48 44 37 38 43 44 43 44 45 46 45 44 45 45 43 40
38 37 42 37 35 34 31 30 27 27 29 32 35 38 39 41 45 46 52 52 52 52 54 53 50 48 48 49 41 38 42 45 43 44 46 46 46 45 45 46 47 44 39
41 44 45 43 39 37 33 29 27 28 30 34 39 41 41 44 48 50 55 55 53 52 53 52 49 47 47 46 39 39 43 44 42 45 47 48 47 45 46 47 46 42 38
46 47 44 41 38 37 31 29 28 30 31 37 41 43 43 47 49 52 56 56 53 53 54 52 48 47 48 45 39 41 43 43 43 46 46 46 45 45 46 45 43 40 38
42 38 41 41 38 33 31 29 30 31 34 39 43 43 46 49 52 54 57 57 56 54 55 49 47 46 46 43 39 42 41 41 44 45 46 46 45 45 45 44 43 41 40
38 38 39 37 33 31 31 30 31 32 36 41 43 46 48 51 54 55 58 57 55 54 52 48 46 45 46 41 40 41 42 41 43 43 46 46 45 45 44 43 43 42 42
42 42 39 34 30 31 31 31 33 34 38 41 45 48 50 53 55 58 59 56 55 53 50 50 46 45 45 40 40 39 41 41 42 43 43 44 43 43 43 43 45 47 47
47 45 42 37 36 37 35 34 34 36 39 44 47 49 52 54 57 60 60 57 56 54 50 49 46 45 43 38 38 39 39 41 40 41 42 43 42 41 42 46 48 51 52
52 52 48 38 37 37 37 38 37 38 41 45 48 50 53 55 58 59 59 57 56 54 51 51 45 44 41 36 36 38 38 40 40 41 40 41 39 39 43 47 52 55 54
59 56 49 44 41 40 37 36 37 39 43 47 51 53 55 57 58 60 57 55 54 52 50 52 43 42 40 36 35 36 37 37 38 39 39 38 37 41 44 49 52 55 53

GFSGL_500_spd_192.txt.gz
Wind_Speed
7 7 7 8 9 9 10 9 10 11 13 17 21 24 28 30 35 37 38 38 35 33 35 36 37 40 42 45 48 51 51 49 46 46 43 40 39 37 35 31 31 32 33
6 5 6 7 9 9 10 9 10 13 16 17 20 26 30 30 36 38 39 39 35 35 35 36 39 41 44 46 50 53 52 48 46 46 43 40 37 35 35 31 32 33 36
5 4 6 8 10 10 11 11 12 14 17 20 23 27 32 31 37 40 41 40 36 36 37 37 39 43 46 49 51 54 53 48 46 44 41 39 38 35 34 36 35 33 35
5 5 5 8 8 7 6 8 11 15 19 22 24 28 34 33 37 41 42 40 37 36 37 38 41 44 48 51 53 55 53 49 45 44 41 37 37 35 34 35 36 37 37
6 4 6 7 7 6 5 10 14 17 20 21 25 30 34 35 38 41 41 38 35 35 37 39 42 45 49 52 55 55 51 48 45 43 38 37 35 35 34 33 34 36 36
4 5 5 6 6 7 10 14 15 19 21 22 26 30 34 36 40 41 39 37 34 34 38 40 43 47 51 54 55 54 51 48 44 42 36 34 34 33 36 36 35 36 35
4 5 6 7 8 11 13 18 20 22 23 23 27 33 32 36 40 41 39 37 35 35 38 39 44 49 52 54 54 52 50 48 47 43 37 36 35 37 37 37 37 38 36
6 6 8 8 9 11 14 19 23 24 23 23 28 34 34 38 40 40 40 39 34 36 38 41 46 50 54 55 52 51 49 49 47 42 37 36 35 37 38 39 39 38 35
6 2 4 8 10 14 13 16 19 24 21 25 30 33 34 38 41 41 41 39 35 35 38 42 46 51 55 54 51 50 49 48 46 40 36 36 37 40 41 41 42 40 38
5 2 5 9 12 13 17 20 20 23 25 26 33 36 37 41 43 42 41 37 34 35 39 42 46 52 56 52 50 49 50 50 45 38 36 36 40 42 42 41 41 40 39
6 6 6 10 14 16 20 24 21 24 27 28 33 36 39 39 41 41 40 37 34 35 39 43 47 53 55 50 50 50 51 49 41 36 37 42 45 45 44 43 42 42 40
16 14 10 12 15 16 20 26 23 24 25 30 32 34 34 37 39 38 37 36 36 38 40 43 47 52 53 50 49 49 50 47 37 36 42 43 44 44 46 44 45 43 41
22 17 14 16 18 20 22 26 27 25 25 27 31 33 32 35 34 35 35 36 38 40 41 44 48 51 52 49 48 49 48 41 36 41 44 44 43 44 43 43 42 41 41
23 22 19 20 21 22 25 27 33 32 31 30 31 28 30 35 33 35 35 36 39 40 43 46 50 52 52 48 48 49 47 39 38 43 43 43 45 45 45 43 43 43 42
31 27 23 26 28 28 31 32 37 36 34 33 29 28 31 33 34 35 37 38 40 42 45 47 50 53 50 47 48 48 46 39 42 43 44 45 44 44 45 44 43 43 43
32 29 30 32 35 34 34 34 39 36 34 34 32 29 31 32 35 37 40 40 42 45 48 49 51 54 49 48 48 48 45 40 42 44 43 45 45 46 46 45 45 44 43
34 33 37 39 40 39 35 36 41 37 36 33 31 29 31 31 35 40 41 45 46 48 51 51 51 54 49 49 48 47 44 40 43 44 44 45 45 47 46 45 45 45 42
40 39 41 41 41 43 41 41 42 39 36 31 29 30 30 33 37 41 43 46 48 50 52 52 52 53 52 50 48 48 44 42 44 45 45 44 45 46 45 44 44 42 42
42 45 44 40 44 44 42 43 38 34 30 31 31 29 30 34 38 42 45 48 49 51 54 53 52 52 52 50 49 48 44 43 44 44 45 43 45 45 47 48 46 44 44
48 46 42 43 46 45 48 45 38 34 31 33 32 28 32 37 40 43 46 49 51 54 56 55 53 53 53 54 51 49 45 44 45 45 44 43 45 46 46 46 43 45 47
49 43 40 45 50 52 50 45 38 34 33 32 31 28 36 40 41 44 47 49 53 55 56 54 53 54 53 55 51 47 44 42 45 43 42 44 45 46 45 45 47 47 52
40 38 43 49 53 51 43 40 36 34 33 32 29 32 37 39 42 45 47 49 52 54 56 57 54 54 52 57 50 47 44 42 43 44 43 44 44 44 43 45 48 54 58
42 48 52 50 47 39 39 42 37 36 33 32 32 31 34 38 42 44 47 51 53 55 57 61 56 54 51 56 51 46 43 42 42 42 42 43 42 41 42 45 51 56 62
49 46 43 45 43 43 43 44 40 41 41 38 33 33 35 38 41 44 48 50 54 56 59 61 58 54 51 54 51 43 43 41 40 41 41 41 41 40 42 47 52 56 62
43 45 48 45 46 46 48 49 48 41 40 39 39 37 39 37 39 43 48 52 55 59 62 60 55 52 49 52 47 41 40 38 38 38 38 38 38 39 41 47 51 55 61
50 50 47 49 51 55 52 50 49 47 43 38 38 37 36 35 40 45 51 57 59 57 55 53 51 51 47 49 43 38 39 36 37 37 36 37 36 38 41 45 50 55 60

GFSGL_500_spd_195.txt.gz
Wind_Speed
8 8 9 10 10 10 8 7 6 9 13 15 15 20 24 29 31 33 37 35 31 29 31 32 34 36 39 43 45 49 50 50 49 48 46 46 44 35 33 33 31 31 33
9 8 9 11 11 11 9 7 7 9 11 14 17 20 24 29 32 35 39 36 31 29 31 33 35 36 40 44 47 50 52 51 50 47 46 47 43 34 33 32 32 31 33
11 9 10 11 10 10 8 5 5 7 11 16 18 20 24 29 33 36 39 37 34 33 33 35 36 37 41 46 49 52 52 50 49 47 48 47 43 35 31 32 35 35 36
11 10 11 10 8 7 6 3 7 10 14 18 21 23 25 31 33 35 40 38 35 36 33 34 35 37 42 47 50 52 50 50 49 49 49 47 41 35 33 33 34 37 37
11 10 10 7 7 6 2 4 9 11 15 20 25 25 28 33 34 36 40 39 37 36 34 33 35 38 43 48 52 52 49 49 50 50 49 44 37 34 33 34 35 36 38
11 12 8 4 6 3 5 10 14 16 15 17 23 26 30 34 36 37 41 40 40 38 35 34 35 39 44 49 53 50 49 48 50 50 47 40 36 35 36 37 39 38 37
12 11 5 6 5 3 7 12 19 23 26 25 25 27 32 36 38 40 45 43 42 41 39 36 38 40 46 49 52 49 48 49 50 49 42 36 36 39 41 42 40 39 40
15 11 5 7 6 4 8 11 17 20 23 25 27 30 34 38 40 44 45 45 43 43 39 37 38 41 46 50 51 47 46 47 47 45 38 37 39 41 43 42 41 40 41
12 6 5 4 4 2 6 10 13 17 21 26 29 32 35 39 37 41 43 43 45 44 41 39 39 42 47 50 49 45 46 48 46 42 38 39 42 44 43 42 42 42 40
11 5 4 3 1 3 7 11 16 21 23 27 31 32 34 37 36 40 42 44 43 41 40 38 40 42 47 51 48 45 47 47 46 41 39 41 43 42 40 38 42 43 44
16 9 7 4 7 11 10 11 16 22 23 26 31 34 35 34 36 38 40 43 41 41 42 40 39 42 47 51 48 45 49 48 46 41 41 44 45 46 43 41 42 43 43
21 15 11 9 11 12 14 14 19 22 26 29 30 32 31 33 36 34 38 38 41 42 42 41 42 43 47 50 47 47 50 48 45 42 42 45 46 46 44 44 45 45 44
24 21 21 16 13 14 14 19 20 24 29 32 34 32 33 32 33 33 36 37 39 41 42 43 44 45 47 50 49 49 50 48 45 42 43 46 47 45 43 45 46 45 45
22 23 21 18 17 18 19 21 23 26 30 34 35 34 35 37 35 33 35 36 40 42 44 45 47 47 48 49 50 50 51 50 46 44 44 46 47 45 43 45 46 46 45
27 26 24 23 24 22 25 28 28 30 34 35 39 35 37 37 38 34 33 35 40 43 46 46 48 49 49 51 51 51 54 51 49 46 44 46 47 45 45 47 47 47 45
31 29 28 26 28 27 28 31 34 39 26 35 43 39 39 38 38 35 33 35 40 44 47 48 49 51 52 52 54 54 56 53 50 45 45 45 46 45 46 47 49 48 44
37 36 36 34 31 30 32 37 40 36 38 39 45 41 39 36 35 34 32 37 41 46 48 49 50 52 54 54 56 56 57 52 50 45 45 47 47 46 47 48 49 47 45
45 41 40 43 33 35 37 39 45 42 42 40 45 42 39 35 34 33 32 37 44 46 49 50 52 54 57 56 58 56 56 53 50 45 45 47 47 47 49 49 47 48 48
47 46 43 46 41 38 40 44 47 44 44 43 46 46 38 34 33 33 32 40 45 46 48 49 54 55 57 58 59 57 56 54 49 45 45 46 47 48 50 50 48 49 52
51 50 47 49 45 46 42 48 45 46 47 45 48 44 36 33 33 33 35 42 44 46 47 50 54 56 57 60 58 57 55 54 47 45 44 46 46 49 49 50 49 51 55
52 49 52 51 51 48 44 46 46 46 48 50 49 40 37 34 33 33 37 39 42 45 47 50 53 56 59 58 55 55 53 54 47 43 44 45 45 48 49 48 51 53 57
50 52 53 54 45 43 42 47 49 49 51 51 49 37 35 34 32 36 37 38 40 43 45 50 54 59 54 50 52 53 51 54 46 42 42 45 46 48 49 48 50 54 59
53 53 55 54 46 41 45 50 51 52 54 50 46 36 37 39 38 38 38 40 40 41 45 51 54 52 52 49 50 52 51 54 43 39 40 42 44 47 48 48 50 54 60
45 44 44 42 42 46 51 53 56 54 51 48 46 43 43 41 41 40 43 41 38 40 42 45 48 51 52 48 48 49 48 51 40 37 39 40 42 45 45 47 50 55 61
45 45 46 47 49 52 51 52 56 50 52 49 49 51 44 43 41 40 41 37 36 36 37 45 47 54 53 49 51 51 47 51 36 34 35 38 41 43 42 46 48 54 61
50 53 57 58 55 52 50 52 51 55 54 50 56 52 42 43 42 38 36 35 38 37 39 44 52 52 58 53 51 52 52 53 32 32 34 35 38 41 40 43 47 53 60

GFSGL_500_spd_201.txt.gz
Wind_Speed
12 10 9 9 9 8 5 3 2 4 8 10 11 14 18 20 22 23 25 28 30 31 29 25 24 26 29 31 35 40 46 49 51 48 46 50 43 37 35 35 35 36 35
13 12 10 9 8 8 6 5 2 3 6 8 11 15 16 17 21 23 25 26 29 31 31 27 26 28 31 33 36 41 46 49 50 45 48 49 40 36 34 35 37 39 38
14 13 10 9 8 8 6 5 3 2 5 10 13 15 17 18 21 23 26 28 31 34 34 33 31 30 33 36 39 42 46 49 49 45 47 46 41 36 35 36 39 41 38
15 14 12 10 10 7 5 4 3 2 4 8 12 14 17 20 23 26 29 32 36 37 37 38 37 35 36 37 39 42 45 48 50 47 47 46 43 39 37 37 41 43 37
16 16 14 12 11 8 6 6 5 2 11 4 9 16 21 24 26 29 33 37 38 40 40 41 43 41 39 40 41 43 45 47 50 51 50 45 42 41 39 39 40 40 39
17 17 15 12 11 10 7 7 5 4 5 8 12 16 20 24 26 30 34 36 38 40 41 43 44 44 42 41 43 43 44 48 50 53 52 45 43 43 40 40 40 40 39
20 18 14 12 13 11 9 6 6 3 2 7 12 16 20 24 28 30 33 34 36 38 40 42 43 46 46 44 45 46 46 48 51 54 51 48 47 44 39 39 40 42 41
20 17 15 13 13 13 7 4 6 5 5 8 11 15 20 25 28 30 31 32 33 36 38 40 42 45 47 48 48 47 49 50 51 55 54 50 49 47 41 41 42 42 43
18 16 14 13 13 12 3 2 6 5 2 4 8 14 19 24 28 29 32 34 35 36 36 39 40 43 46 49 50 51 51 52 54 55 57 54 52 51 46 40 41 41 41
18 16 15 13 15 8 4 3 6 5 3 4 6 12 17 22 25 28 31 35 36 38 39 39 38 40 44 48 52 53 54 56 58 58 59 58 56 53 48 44 42 43 43
18 16 16 18 15 9 5 4 8 9 8 8 8 17 15 21 25 29 32 38 38 37 39 40 39 39 43 48 52 55 56 57 60 61 61 62 57 55 51 48 46 46 46
15 15 20 20 16 11 9 9 12 14 13 12 10 19 30 22 20 27 31 38 42 42 41 39 39 39 43 47 53 56 57 59 62 61 61 62 59 59 56 51 49 49 51
18 18 24 26 23 17 13 14 15 16 15 15 14 21 31 32 41 24 27 34 39 45 47 38 38 40 43 47 53 56 58 59 61 61 63 64 61 58 56 52 51 51 53
23 22 21 25 27 25 21 20 18 18 18 18 16 23 32 38 43 44 27 34 37 42 46 37 38 39 43 47 53 56 59 60 60 61 63 63 63 59 61 54 51 51 54
24 26 26 24 24 25 26 24 17 21 22 23 21 28 33 36 37 44 42 31 41 45 45 37 36 38 42 46 52 54 57 57 58 59 61 63 62 59 63 53 52 54 57
28 26 28 29 31 31 29 27 22 23 26 29 24 30 35 32 40 40 43 29 38 47 46 39 37 38 42 47 51 52 52 50 53 58 62 63 60 66 65 52 50 54 57
34 32 32 31 33 35 36 35 34 30 31 34 36 32 35 38 50 39 51 29 32 44 46 39 37 39 43 46 51 51 49 51 55 61 67 64 64 64 61 52 49 54 59
38 36 37 37 40 39 41 37 38 38 36 45 33 41 41 41 37 37 43 27 32 41 43 40 39 39 43 47 50 50 51 51 56 64 67 72 66 68 66 52 51 55 59
47 43 42 43 41 42 43 41 43 43 41 49 43 43 49 55 50 47 38 28 35 39 43 40 39 38 43 46 50 49 51 55 59 66 69 68 72 71 66 53 51 55 60
49 49 47 48 48 50 48 47 46 44 46 46 49 50 53 54 57 40 24 32 35 38 43 42 41 41 43 46 49 49 52 55 60 67 70 72 75 71 64 56 51 55 60
54 56 57 56 55 53 52 53 52 49 49 51 56 54 54 60 45 40 29 35 40 39 43 44 46 44 43 45 50 49 50 54 60 64 69 70 72 66 62 53 50 55 60
51 50 48 49 49 49 49 47 48 53 51 52 56 54 54 57 54 39 47 34 42 44 42 48 52 50 44 45 47 48 50 54 59 64 69 71 71 69 66 53 48 54 61
47 46 46 47 48 48 47 45 45 48 51 53 54 55 46 56 54 40 41 38 47 45 46 56 55 52 47 46 45 44 50 55 58 64 67 66 67 63 66 56 48 53 58
53 51 50 50 50 50 47 45 46 45 49 52 53 54 52 46 42 51 38 45 48 46 47 53 54 54 46 43 42 43 50 55 58 64 64 65 64 63 62 50 46 53 58
53 53 53 51 50 51 50 48 47 44 43 40 42 50 54 55 55 49 45 47 49 49 54 49 51 50 46 44 41 45 49 53 59 63 63 61 58 61 61 45 45 51 58
58 56 56 54 53 52 52 52 49 48 47 47 49 53 57 58 56 56 48 50 51 57 51 42 46 44 42 41 44 48 49 52 56 59 60 56 55 59 61 44 43 50 55

GFSGL_500_spd_204.txt.gz
Wind_Speed
15 14 13 11 10 7 5 4 3 4 6 4 4 6 9 12 16 20 21 21 22 24 28 31 29 27 27 27 29 31 34 38 42 46 49 49 48 44 43 39 37 36 39
17 15 13 12 10 8 5 5 4 3 4 3 4 7 10 14 17 20 21 22 26 29 31 33 34 32 30 30 32 33 36 39 43 46 51 50 47 45 44 41 38 38 39
18 15 13 12 10 9 8 6 6 6 3 2 7 8 10 13 18 21 22 25 28 30 33 34 37 37 37 36 36 36 38 41 44 46 51 52 48 45 45 44 40 38 38
19 17 15 13 12 9 9 8 8 7 5 3 7 9 13 17 19 21 24 27 30 32 35 38 39 42 42 42 40 39 40 42 44 47 50 53 54 51 48 46 43 41 39
21 18 17 15 12 9 11 11 12 10 5 3 3 8 13 17 20 21 23 26 29 31 33 38 41 43 44 45 46 44 44 45 47 50 53 55 55 53 49 48 44 43 42
22 21 21 16 12 14 14 13 11 7 2 1 3 8 11 15 18 21 23 27 31 32 33 36 40 42 43 45 48 49 48 48 49 52 55 56 56 56 52 48 47 45 44
24 23 20 17 14 16 16 13 9 3 5 4 3 6 10 14 17 20 24 27 30 32 33 35 36 38 40 42 45 49 52 52 51 53 56 59 60 59 55 49 49 49 46
26 23 20 17 18 19 15 14 8 6 8 6 4 2 6 13 17 19 22 26 30 32 35 34 37 37 36 39 43 46 52 55 55 55 58 61 62 59 59 53 54 52 47
27 24 21 20 19 18 17 14 8 5 2 6 5 3 7 14 18 20 22 24 29 33 35 38 40 40 35 38 41 46 50 57 59 58 59 61 60 58 60 54 57 57 48
25 23 23 22 21 18 20 14 10 4 1 5 8 7 12 17 18 19 18 22 26 30 33 39 44 42 38 37 40 45 49 54 59 58 58 57 58 60 58 56 59 61 53
27 27 25 22 22 24 19 14 8 5 2 8 12 10 14 22 27 27 29 20 28 31 33 36 42 41 38 37 40 43 48 52 56 54 54 57 62 63 61 62 63 63 56
27 27 24 24 25 24 17 14 12 10 9 12 14 13 17 22 31 35 40 40 42 34 32 36 42 41 36 34 38 42 47 51 53 56 57 59 64 65 70 74 73 65 60
27 24 23 28 29 25 22 19 17 17 15 15 19 19 19 23 32 36 41 41 39 37 37 38 42 42 33 34 37 42 47 51 53 55 59 60 68 70 72 77 76 68 62
26 24 26 29 29 29 26 22 20 19 19 21 21 25 24 29 33 35 41 45 47 39 32 37 40 42 36 33 38 42 45 49 52 55 60 62 68 73 76 80 74 69 62
23 25 25 25 25 28 29 28 27 25 24 26 27 30 30 34 33 41 45 46 46 51 41 28 35 37 37 35 37 40 44 48 52 55 61 63 67 72 77 78 75 72 63
29 26 25 26 27 28 27 29 27 27 29 27 30 33 34 40 36 40 46 43 41 50 48 26 34 33 36 38 39 42 46 49 52 55 59 62 67 73 76 80 73 70 64
26 29 30 31 33 33 33 33 33 34 36 34 34 40 35 48 37 46 44 42 53 53 51 28 33 32 38 40 43 46 48 50 51 55 57 61 65 70 77 75 71 72 67
40 38 37 36 37 36 36 35 36 36 36 40 42 41 48 45 51 55 58 47 51 58 55 26 32 31 38 43 45 48 50 52 53 54 55 60 64 68 75 71 72 73 68
45 44 42 41 41 41 42 41 40 41 42 45 44 47 52 50 59 55 56 55 59 58 47 30 35 34 39 41 46 53 55 54 55 50 55 60 64 69 75 70 74 75 73
50 50 48 46 46 47 47 45 44 42 45 48 50 52 50 52 55 58 63 56 59 62 50 34 38 34 42 44 49 55 58 55 54 49 54 60 65 69 73 70 77 78 71
52 53 51 49 48 47 47 47 47 50 52 55 53 51 51 56 57 57 61 65 60 60 44 38 40 40 43 46 50 55 58 53 50 49 56 60 65 69 71 69 75 75 68
56 54 52 50 50 51 50 51 54 55 53 50 52 53 55 55 54 57 60 59 59 58 53 39 36 42 45 48 47 55 53 51 48 50 54 58 62 67 67 66 73 71 65
56 56 55 55 54 55 54 53 52 49 46 46 48 48 48 47 47 53 55 61 65 57 41 39 42 43 47 49 53 46 48 49 47 50 54 57 63 62 56 65 68 63 60
58 56 56 56 54 52 51 48 47 48 47 47 47 46 45 46 46 51 61 60 61 56 46 45 49 46 49 50 41 40 44 46 47 50 53 57 61 59 57 59 61 59 57
59 59 57 57 57 57 55 53 52 52 51 51 51 50 48 46 47 50 54 57 58 58 60 59 54 50 50 49 44 36 40 43 45 49 54 60 63 53 52 55 52 54 53
59 59 61 62 61 59 59 59 58 55 50 51 52 52 50 46 48 51 55 56 64 64 67 57 54 53 52 47 31 34 38 41 45 52 61 65 63 52 51 48 50 50 48

GFSGL_500_spd_207.txt.gz
Wind_Speed
21 19 16 12 10 8 6 5 4 5 5 3 1 4 5 9 13 16 18 20 23 24 26 29 30 30 31 33 32 31 31 32 35 38 42 45 48 51 51 47 44 42 42
22 20 17 16 13 10 9 7 6 7 7 3 2 5 4 7 10 15 19 23 26 28 28 31 34 37 36 35 36 37 37 37 39 41 43 47 51 53 52 51 48 43 42
23 21 19 17 15 13 10 9 8 9 9 5 5 4 4 7 13 16 18 22 25 26 28 31 34 36 38 39 41 42 42 44 43 44 46 48 52 54 53 53 50 44 45
25 22 19 18 17 16 15 12 11 11 12 11 7 3 5 9 12 14 17 20 24 27 29 32 34 37 40 42 41 43 45 47 47 49 49 49 52 51 52 55 54 48 48
27 24 21 21 21 18 16 15 14 13 15 12 6 1 6 7 12 14 16 19 23 27 30 31 33 36 38 40 40 40 43 47 50 51 52 51 50 49 56 56 56 56 57
29 25 24 23 21 19 19 18 17 17 16 11 7 4 5 5 9 12 16 20 24 27 29 31 34 36 38 41 41 39 40 45 48 51 52 52 52 57 59 56 62 67 66
29 28 26 24 21 21 23 20 17 16 18 11 9 7 4 2 8 12 16 21 24 25 28 34 36 39 40 39 41 39 39 41 45 49 51 53 55 58 59 62 64 69 68
30 27 26 24 23 23 23 20 18 17 17 13 12 10 6 4 10 15 18 23 26 26 30 35 38 38 43 45 42 37 39 40 43 46 50 55 57 58 61 64 67 70 74
30 27 26 24 24 24 21 20 19 17 17 14 13 11 9 9 13 17 21 25 26 24 27 31 33 37 42 44 43 40 36 39 43 46 49 53 57 60 62 64 68 73 74
30 28 27 26 26 24 23 22 23 17 14 10 10 11 11 10 16 20 23 31 34 39 38 37 34 36 41 42 43 40 37 38 42 46 49 53 57 59 62 66 71 75 75
30 29 30 28 26 26 27 25 22 18 15 11 10 11 11 13 17 24 27 29 36 41 44 44 47 37 40 38 44 41 38 38 41 44 49 53 57 62 65 69 72 77 74
32 33 30 28 28 28 29 25 22 19 16 14 14 15 14 17 22 26 30 33 37 42 46 48 46 47 49 37 36 39 38 39 42 44 50 53 57 61 65 70 74 79 76
30 30 30 30 30 29 29 27 25 22 19 17 17 19 20 22 26 31 35 41 40 43 47 49 54 54 50 41 36 36 39 41 45 47 50 53 57 60 64 70 74 79 79
31 31 32 31 30 30 31 30 28 24 22 21 21 24 26 28 30 36 41 43 41 41 48 54 54 51 52 57 41 39 42 44 46 50 52 54 57 60 63 69 73 78 81
33 33 31 31 32 34 36 36 33 31 28 26 25 26 29 30 35 44 44 44 46 50 52 51 51 45 53 48 33 36 41 45 49 54 54 55 59 59 65 70 73 77 80
35 32 31 32 32 34 34 35 35 34 34 33 32 33 32 35 44 53 52 51 50 50 48 57 60 53 49 44 40 34 39 45 51 56 55 55 58 59 65 70 74 79 83
33 31 30 32 32 32 33 31 29 29 29 31 36 38 43 49 43 49 57 49 51 60 58 58 53 56 54 51 34 28 37 45 49 56 55 54 55 58 64 69 74 79 76
32 32 32 31 30 30 31 31 33 33 35 36 40 44 43 41 49 50 49 54 56 55 57 63 59 54 66 57 52 33 39 44 48 54 54 52 53 58 64 68 75 76 73
41 40 39 39 39 39 38 39 40 40 38 40 43 48 49 46 48 51 55 57 55 54 58 60 64 59 65 57 42 45 44 44 48 52 50 51 52 58 63 68 78 74 71
46 45 45 46 45 47 47 45 45 45 45 44 47 50 51 52 52 54 57 58 58 55 58 62 60 61 64 61 52 43 43 48 47 44 49 48 51 58 63 71 76 70 68
53 55 56 56 54 53 56 56 53 52 50 49 50 53 55 56 56 59 59 56 57 57 60 57 55 53 59 59 56 50 48 51 50 40 44 46 50 55 64 69 72 63 62
55 54 60 61 60 60 59 59 58 58 54 54 55 55 56 56 57 56 53 51 52 53 52 49 50 52 58 63 57 65 66 70 54 36 40 45 49 57 59 66 66 60 59
53 53 54 59 61 61 61 59 57 56 56 56 57 58 58 56 53 49 46 46 48 49 48 47 50 57 59 63 61 64 62 71 49 35 37 43 48 55 60 64 65 60 58
55 60 59 59 56 55 56 54 53 55 55 55 55 56 56 53 49 47 45 44 45 45 45 47 49 56 58 62 64 69 61 62 37 31 36 42 46 53 59 60 60 58 57
56 58 57 56 58 57 57 56 56 56 58 58 57 56 55 54 52 51 50 47 46 46 45 48 50 57 60 63 67 77 64 43 36 33 36 40 43 49 52 56 54 55 50
65 65 65 63 61 59 57 57 59 58 59 60 60 60 60 58 56 55 53 52 50 48 44 46 49 55 58 65 45 36 37 25 27 31 38 38 41 45 48 51 50 47 45

GFSGL_500_spd_210.txt.gz
Wind_Speed
23 22 19 16 15 13 11 10 9 8 7 5 2 2 3 4 7 10 12 17 19 19 23 27 30 32 35 36 37 37 37 38 39 40 38 39 40 42 45 47 47 46 49
25 23 21 19 16 15 12 11 10 8 9 7 4 2 2 1 4 8 13 18 20 22 25 28 29 32 33 34 37 38 37 38 39 42 42 41 42 43 45 47 49 45 48
26 24 23 20 18 15 14 12 11 9 9 8 5 2 3 1 6 8 12 16 18 21 25 27 30 31 34 34 34 36 37 37 38 40 40 44 44 45 46 47 50 51 53
28 25 24 22 20 19 16 14 13 12 11 12 8 4 5 4 6 7 11 13 15 20 23 26 31 33 36 40 43 42 39 37 36 37 40 40 43 46 48 50 54 56 58
31 27 24 24 24 23 20 18 16 14 13 14 10 7 5 6 4 4 7 12 15 18 23 27 30 34 35 39 43 45 46 42 38 37 39 41 43 47 49 52 56 59 62
33 29 28 26 25 23 22 20 18 16 15 13 13 11 9 6 2 2 7 14 20 21 23 26 28 30 34 36 40 44 45 45 41 38 39 42 45 47 51 54 57 60 61
36 34 31 29 27 25 24 22 20 18 16 15 15 16 13 10 7 5 8 14 21 25 26 32 32 37 37 40 37 39 38 41 40 41 42 43 46 48 51 55 59 62 65
40 37 33 30 27 26 25 24 24 19 17 14 17 18 15 14 12 9 11 14 21 27 32 35 40 46 47 46 47 35 32 36 37 40 41 44 48 51 53 56 61 63 67
41 38 35 31 30 28 26 24 26 23 20 16 18 19 16 14 13 11 12 19 22 25 30 36 41 44 50 53 56 56 41 34 36 38 42 46 50 54 56 58 63 64 68
42 39 35 31 30 29 27 26 27 25 23 18 18 18 14 11 11 13 15 19 24 31 31 35 42 44 45 53 59 54 54 41 37 40 42 47 51 55 57 60 64 66 71
43 42 37 33 31 30 29 29 29 26 25 19 18 18 12 11 10 15 21 23 27 37 39 42 46 51 53 57 58 55 54 41 34 40 43 47 52 55 57 59 63 67 74
42 43 40 37 34 31 32 31 30 29 24 22 20 16 14 15 18 20 26 30 34 33 35 40 46 47 50 58 63 60 61 54 45 38 45 48 53 57 58 59 63 68 76
42 43 44 41 38 35 35 34 32 31 27 26 22 18 20 22 20 30 41 37 37 41 39 43 49 57 59 62 60 54 57 53 50 42 43 51 56 59 58 60 64 69 77
41 44 44 42 40 37 36 35 32 31 29 28 25 25 27 25 23 27 39 40 40 45 51 55 62 55 52 55 62 60 62 64 51 41 42 50 56 60 58 60 64 71 78
40 41 41 41 39 38 37 35 33 32 32 32 30 33 32 28 26 32 37 40 45 49 47 46 45 53 55 60 61 61 62 69 65 59 63 46 52 56 60 58 62 70 79
40 43 43 41 39 39 37 36 36 36 38 37 37 35 34 32 30 38 44 48 48 42 45 49 52 56 58 60 62 64 63 62 60 50 62 46 47 49 55 57 61 67 76
37 37 37 37 35 32 31 34 36 38 40 39 38 37 38 37 35 39 45 45 47 49 48 48 53 55 60 64 64 60 63 60 55 55 74 59 58 44 49 54 60 65 72
37 35 33 31 30 31 32 32 33 34 36 36 35 35 36 37 42 45 48 46 46 52 51 50 52 55 59 61 60 58 57 54 57 59 61 63 64 38 43 50 58 64 70
39 40 37 37 35 34 34 33 33 36 37 38 39 39 44 48 48 48 46 49 51 52 55 56 57 58 57 58 55 55 52 52 64 60 73 71 66 40 40 47 53 60 66
43 42 42 41 42 40 39 40 41 42 42 41 42 45 48 48 51 51 52 54 54 55 57 58 57 53 53 53 53 51 52 54 58 60 73 64 44 37 39 43 50 56 61
47 53 55 54 48 50 48 46 47 48 50 50 51 52 52 53 55 57 57 57 58 56 55 55 50 49 47 49 50 49 50 51 59 63 72 60 35 37 37 41 47 53 56
47 45 51 53 59 56 55 53 53 53 56 55 55 57 59 60 61 63 61 61 57 56 53 49 45 44 44 46 47 47 47 51 59 68 61 53 32 36 36 42 45 48 50
51 46 48 48 54 57 60 59 61 61 62 61 60 62 63 64 61 62 61 59 56 51 49 46 45 43 44 47 46 45 44 54 61 67 40 34 29 38 37 38 41 47 46
51 46 43 46 54 60 61 60 58 62 66 68 68 69 67 64 57 55 56 55 53 50 46 46 46 46 46 47 45 41 42 53 61 44 26 19 30 38 40 35 43 45 44
57 52 52 50 51 56 60 62 62 63 60 59 59 59 59 56 55 54 53 52 54 54 51 49 48 47 45 44 43 42 44 51 52 36 17 23 30 38 38 35 42 42 46
64 63 62 61 62 59 61 60 58 58 58 58 58 58 57 58 55 55 53 53 53 53 52 50 48 47 46 45 48 49 47 46 42 27 20 27 33 38 34 38 40 43 44

GFSGL_500_spd_216.txt.gz
Wind_Speed
24 22 20 20 19 19 18 16 14 14 13 10 7 6 5 5 4 3 6 7 8 9 13 18 21 23 27 29 31 32 40 48 37 31 32 32 31 34 35 37 39 42 45
26 23 21 21 20 19 18 17 14 13 13 12 9 7 6 7 5 4 5 7 5 6 11 14 16 23 26 31 36 44 45 49 50 49 39 31 28 33 34 36 39 42 45
29 26 25 22 20 19 19 18 16 15 13 12 11 9 8 9 9 9 8 6 2 5 9 11 13 20 26 31 39 46 50 54 44 55 60 55 33 25 33 36 39 42 46
31 28 26 24 22 22 21 19 19 16 14 12 11 11 10 11 11 13 11 5 1 3 6 9 13 20 27 33 38 45 50 52 49 53 45 46 42 27 32 36 42 45 49
32 31 28 26 26 26 25 22 21 18 16 15 13 12 11 12 14 16 14 10 6 5 8 11 16 21 28 32 37 40 43 51 48 50 51 57 60 42 41 36 39 44 47
31 32 31 30 29 28 27 25 23 21 18 17 14 14 13 14 17 19 17 15 12 11 9 14 18 24 29 34 36 44 54 46 53 59 56 58 60 62 66 61 46 47 48
31 33 35 33 31 29 30 29 27 24 22 19 17 16 15 16 19 22 20 20 18 16 16 19 22 27 29 36 38 44 43 51 51 57 57 59 61 63 66 71 58 59 55
32 35 36 35 33 32 32 31 29 28 25 24 22 20 21 20 20 22 26 21 21 19 19 23 25 25 30 37 40 43 51 51 56 60 64 61 65 68 69 67 73 71 62
27 31 33 34 35 34 33 31 30 29 27 26 25 24 22 22 22 24 23 22 25 24 24 25 27 23 29 38 41 49 44 52 55 60 62 63 66 66 70 70 76 65 67
24 28 33 35 37 38 36 34 33 32 29 30 30 27 25 26 23 24 25 21 22 25 27 29 27 27 37 39 44 38 46 49 53 56 61 63 63 64 69 74 78 63 65
25 29 35 36 38 41 40 38 36 36 34 32 31 29 29 28 27 24 26 23 22 26 27 27 28 24 32 40 45 51 44 48 54 59 63 61 59 62 63 69 76 69 67
33 34 35 37 39 41 44 42 40 38 36 33 32 31 28 29 27 26 27 30 27 25 23 22 25 27 32 39 43 46 50 51 59 62 65 60 58 56 63 69 72 71 77
39 38 36 37 41 43 45 47 44 40 36 34 33 32 30 30 30 29 29 33 34 29 25 27 26 29 33 37 44 42 53 56 62 64 65 59 58 57 61 61 61 67 74
34 38 39 38 40 41 44 48 48 43 38 35 34 33 32 33 32 32 32 37 40 32 31 28 29 31 35 38 42 46 53 56 62 65 64 59 57 57 59 61 57 47 62
31 35 41 39 38 40 41 45 46 44 42 40 38 37 37 37 36 37 36 41 43 36 35 32 32 35 39 42 46 54 49 56 63 64 60 56 55 56 57 66 68 63 49
36 33 34 36 36 37 40 42 43 44 45 41 40 39 40 38 38 38 41 43 42 39 37 37 35 39 42 46 49 51 53 58 62 62 56 55 55 55 57 60 62 60 53
36 35 35 34 35 37 38 37 38 41 41 39 38 38 38 37 37 39 42 45 43 41 39 39 39 42 46 49 52 51 55 59 62 59 53 52 55 56 55 55 50 52 46
36 35 33 31 33 33 34 34 36 36 34 33 34 34 35 35 38 39 45 46 42 42 42 41 43 46 49 51 51 54 57 60 59 55 50 50 53 53 53 52 48 42 47
38 38 35 34 33 32 32 32 32 33 33 34 35 35 37 37 38 39 40 42 45 42 44 44 46 49 51 52 54 57 57 62 57 54 49 49 50 49 55 49 56 39 45
43 41 39 37 35 32 30 30 31 32 33 34 35 35 34 36 34 34 36 40 42 43 45 48 51 51 52 55 57 59 58 61 52 50 49 49 49 49 52 43 45 37 42
40 43 41 41 38 36 34 34 32 32 31 31 30 32 31 32 32 33 35 40 43 46 48 49 51 52 57 59 61 62 61 53 54 48 46 48 48 47 50 43 36 36 43
42 43 42 43 45 42 39 38 38 36 35 34 36 38 39 39 40 41 42 44 46 49 51 53 55 57 60 60 62 60 49 50 49 45 45 45 47 45 45 36 34 34 38
50 49 50 49 48 45 47 48 45 43 42 39 38 41 44 45 47 48 50 52 54 56 58 58 58 58 57 55 55 50 48 48 46 46 43 43 42 41 34 30 28 34 35
56 55 60 59 59 52 50 48 49 50 49 46 46 42 43 47 51 54 55 56 60 61 61 62 62 58 56 56 53 49 45 44 44 41 38 42 39 34 38 31 26 32 31
63 65 63 59 61 61 64 58 56 47 41 43 59 45 38 41 46 51 56 58 54 55 58 60 61 59 55 51 49 45 42 42 40 37 37 39 39 36 35 28 28 31 32
64 71 75 69 64 50 50 42 36 40 48 45 40 43 47 46 43 44 45 47 47 49 51 53 57 58 51 49 47 43 44 40 41 39 38 38 39 36 37 31 31 35 36